Andover, NJ

7:40 AM EDT on April 26, 2018 (GMT -0400)
Andover

Weather History for K12N - September, 2013

Change the Weather History Date:

Friday, September 20, 2013

  Actual Average (KFWN) Record (KFWN)
Temperature  
Mean Temperature 62 °F -  
Max Temperature 79 °F 73 °F 93 °F (1983)
Min Temperature 46 °F 47 °F 29 °F (1993)
Degree Days  
Heating Degree Days 3    
Growing Degree Days 12 (Base 50)    
Moisture  
Dew Point 53 °F    
Average Humidity 76    
Maximum Humidity 97    
Minimum Humidity 45    
Precipitation  
Precipitation 0.00 in - - ()
Sea Level Pressure  
Sea Level Pressure 30.05 in    
Wind  
Wind Speed 1 mph (SW)    
Max Wind Speed 7 mph    
Max Gust Speed -    
Averages and records for this station are not official NWS values.
T = Trace of Precipitation, MM = Missing Value Source: NWS Daily Summary

Daily Weather History Graph

Daily Weather History Graph

Search for Another Location

Airport or City:

Astronomy

Sep. 20, 2013 Rise Set
Actual Time 6:44 AM EDT 6:59 PM EDT
Civil Twilight 6:17 AM EDT 7:26 PM EDT
Nautical Twilight 5:44 AM EDT 7:58 PM EDT
Astronomical Twilight 5:11 AM EDT 8:31 PM EDT
Moon 7:30 PM EDT (9/20) 7:57 AM EDT (9/20)
Length of Visible Light 13h 09m
Length of Day
12h 14m
Full, 98% of the Moon is Illuminated
Sep 20
Full
Sep 26
Last Quarter
Oct 4
New
Oct 11
First Quarter
Oct 18
Full

Hourly Weather History & Observations

Time (EDT) Temp. Dew Point Humidity Pressure Visibility Wind Dir Wind Speed Gust Speed Precip Events Conditions
12:54 AM 50.0 °F 48.0 °F 93% 30.09 in - Calm Calm - N/A   Unknown
1:54 AM 48.9 °F 46.9 °F 93% 30.09 in - Calm Calm - N/A   Unknown
2:54 AM 48.0 °F 46.0 °F 93% 30.09 in - Calm Calm - N/A   Unknown
3:54 AM 48.0 °F 46.0 °F 93% 30.09 in - Calm Calm - N/A   Unknown
4:54 AM 46.9 °F 46.0 °F 97% 30.09 in - Calm Calm - N/A   Unknown
5:54 AM 46.9 °F 45.0 °F 93% 30.10 in - Calm Calm - N/A   Unknown
6:54 AM 46.0 °F 45.0 °F 96% 30.11 in - Calm Calm - N/A   Unknown
7:54 AM 48.9 °F 48.0 °F 97% 30.11 in - Calm Calm - N/A   Unknown
8:54 AM 55.0 °F 53.1 °F 93% 30.11 in - Calm Calm - N/A   Unknown
9:54 AM 64.9 °F 55.9 °F 73% 30.11 in - Calm Calm - N/A   Unknown
10:54 AM 71.1 °F 57.9 °F 63% 30.09 in - Calm Calm - N/A   Unknown
11:54 AM 73.9 °F 57.0 °F 55% 30.07 in - Calm Calm - N/A   Unknown
12:54 PM 77.0 °F 55.9 °F 48% 30.06 in - Calm Calm - N/A   Unknown
1:54 PM 77.0 °F 55.0 °F 47% 30.03 in - SW 4.6 mph - N/A   Unknown
2:54 PM 77.0 °F 55.9 °F 48% 30.02 in - Variable 4.6 mph - N/A   Unknown
3:54 PM 78.1 °F 55.0 °F 45% 30.00 in - SW 6.9 mph - N/A   Unknown
4:54 PM 77.0 °F 55.0 °F 47% 30.01 in - SW 6.9 mph - N/A   Unknown
5:54 PM 73.9 °F 55.9 °F 53% 30.00 in - Variable 3.5 mph - N/A   Unknown
6:54 PM 66.9 °F 59.0 °F 76% 30.00 in - Calm Calm - N/A   Unknown
7:54 PM 62.1 °F 57.9 °F 86% 30.00 in - Calm Calm - N/A   Unknown
8:54 PM 64.9 °F 57.0 °F 75% 30.00 in - Variable 3.5 mph - N/A   Unknown
9:54 PM 64.9 °F 57.0 °F 75% 29.99 in - Variable 3.5 mph - N/A   Unknown
10:54 PM 62.1 °F 57.0 °F 84% 29.99 in - SW 4.6 mph - N/A   Unknown
11:54 PM 59.0 °F 55.9 °F 90% 30.00 in - Calm Calm - N/A   Unknown